Weather History for KMGM - December, 2013

Change the Weather History Date:

Saturday, December 14, 2013

  Actual Average Record
Temperature  
Mean Temperature 57 °F 49 °F  
Max Temperature 65 °F 60 °F 80 °F (1984)
Min Temperature 48 °F 38 °F 18 °F (2010)
Degree Days  
Heating Degree Days 8 17  
Month to date heating degree days 139 213  
Since 1 July heating degree days 507 584  
Growing Degree Days 7 (Base 50)    
Moisture  
Dew Point 54 °F    
Average Humidity 75    
Maximum Humidity 93    
Minimum Humidity 56    
Precipitation  
Precipitation 0.77 in 0.16 in 2.93 in (1881)
Month to date precipitation 1.97 2.28  
Year to date precipitation 49.23 50.49  
Snow  
Snow 0.00 in 0.00 in - ()
Month to date snowfall 0.0 0.0  
Since 1 July snowfall 0.0 0.0  
Snow Depth 0.00 in    
Sea Level Pressure  
Sea Level Pressure 29.92 in    
Wind  
Wind Speed 6 mph (West)    
Max Wind Speed 22 mph    
Max Gust Speed 28 mph    
Visibility 8 miles    
Events Rain    
T = Trace of Precipitation, MM = Missing Value Source: NWS Daily Summary

Daily Weather History Graph

Daily Weather History Graph

Search for Another Location

Airport or City:

Trip Planner

Search our weather history database for the weather conditions in past years. The results will help you decide how hot, cold, wet, or windy it might be!

Date:

Astronomy

Dec. 14, 2013 Rise Set
Actual Time 6:38 AM CST 4:41 PM CST
Civil Twilight 6:11 AM CST 5:09 PM CST
Nautical Twilight 5:41 AM CST 5:39 PM CST
Astronomical Twilight 5:11 AM CST 6:09 PM CST
Moon 2:58 PM CST (12/14) 4:05 AM CST (12/14)
Length of Visible Light 10h 57m
Length of Day
10h 03m
Waxing Gibbous, 94% of the Moon is Illuminated
Dec 14
Waxing Gibbous
Dec 17
Full
Dec 25
Last Quarter
Jan 1
New
Jan 7
First Quarter

Hourly Weather History & Observations

Time (CST) Temp. Dew Point Humidity Pressure Visibility Wind Dir Wind Speed Gust Speed Precip Events Conditions
12:53 AM 48.9 °F 34.0 °F 56% 30.08 in 10.0 mi East 6.9 mph - N/A   Partly Cloudy
1:53 AM 48.9 °F 36.0 °F 61% 30.06 in 10.0 mi East 5.8 mph - N/A   Overcast
2:53 AM 50.0 °F 37.9 °F 63% 30.01 in 10.0 mi East 9.2 mph - N/A   Overcast
3:53 AM 51.1 °F 41.0 °F 68% 29.99 in 10.0 mi East 6.9 mph - N/A   Overcast
4:46 AM 51.8 °F 42.8 °F 71% 29.96 in 10.0 mi East 8.1 mph - N/A   Overcast
4:53 AM 52.0 °F 44.1 °F 74% 29.96 in 10.0 mi East 8.1 mph - N/A   Overcast
5:09 AM 53.6 °F 44.6 °F 72% 29.95 in 10.0 mi East 9.2 mph - N/A   Overcast
5:53 AM 53.1 °F 46.9 °F 80% 29.93 in 10.0 mi ESE 9.2 mph - 0.00 in Rain Rain
6:53 AM 55.0 °F 52.0 °F 89% 29.93 in 10.0 mi SE 10.4 mph - 0.07 in Rain Light Rain
7:14 AM 57.2 °F 53.6 °F 88% 29.91 in 10.0 mi SE 10.4 mph - 0.01 in   Overcast
7:53 AM 57.9 °F 55.0 °F 90% 29.93 in 10.0 mi Variable 3.5 mph 18.4 mph 0.01 in   Overcast
8:06 AM 57.2 °F 55.4 °F 94% 29.92 in 6.0 mi SSE 10.4 mph - 0.01 in Rain Light Rain
8:39 AM 60.8 °F 57.2 °F 88% 29.93 in 2.5 mi Calm Calm - 0.04 in Rain Heavy Rain
8:53 AM 60.1 °F 57.0 °F 90% 29.92 in 7.0 mi SSE 3.5 mph - 0.07 in Rain Light Rain
9:12 AM 60.8 °F 57.2 °F 88% 29.92 in 2.5 mi SSE 6.9 mph - 0.05 in Rain Light Rain
9:19 AM 60.8 °F 57.2 °F 88% 29.91 in 4.0 mi SSE 6.9 mph - 0.07 in Rain Light Rain
9:53 AM 62.1 °F 59.0 °F 90% 29.90 in 10.0 mi South 8.1 mph - 0.07 in   Overcast
10:23 AM 62.6 °F 59.0 °F 88% 29.89 in 5.0 mi Calm Calm - 0.04 in Rain Light Rain
10:36 AM 62.6 °F 60.8 °F 94% 29.91 in 1.5 mi NW 17.3 mph 21.9 mph 0.08 in Rain Heavy Rain
10:41 AM 62.6 °F 59.0 °F 88% 29.92 in 0.8 mi West 13.8 mph 21.9 mph 0.24 in Rain Heavy Rain
10:48 AM 62.6 °F 59.0 °F 88% 29.90 in 4.0 mi West 8.1 mph - 0.43 in Rain Heavy Rain
10:53 AM 63.0 °F 60.1 °F 90% 29.90 in 10.0 mi West 6.9 mph - 0.43 in Rain Light Rain
11:05 AM 62.6 °F 60.8 °F 94% 29.89 in 10.0 mi WSW 5.8 mph - 0.00 in   Overcast
11:24 AM 62.6 °F 60.8 °F 94% 29.87 in 10.0 mi West 8.1 mph - 0.00 in   Overcast
11:53 AM 63.0 °F 60.1 °F 90% 29.86 in 10.0 mi WSW 4.6 mph - 0.00 in   Overcast
12:27 PM 62.6 °F 60.8 °F 94% 29.85 in 10.0 mi West 3.5 mph - N/A   Overcast
12:50 PM 62.6 °F 60.8 °F 94% 29.85 in 1.0 mi WNW 4.6 mph - 0.00 in Rain Light Rain
12:53 PM 63.0 °F 60.1 °F 90% 29.85 in 1.0 mi NW 4.6 mph - 0.00 in Rain Light Rain
1:03 PM 62.6 °F 60.8 °F 94% 29.85 in 1.0 mi NW 4.6 mph - 0.01 in Rain Light Rain
1:28 PM 64.4 °F 62.6 °F 94% 29.84 in 2.0 mi West 8.1 mph - 0.01 in   Overcast
1:36 PM 64.4 °F 60.8 °F 88% 29.84 in 5.0 mi West 9.2 mph - 0.01 in   Overcast
1:53 PM 64.9 °F 61.0 °F 87% 29.83 in 5.0 mi West 8.1 mph - 0.01 in   Overcast
2:53 PM 63.0 °F 60.1 °F 90% 29.86 in 10.0 mi West 6.9 mph - N/A   Overcast
3:04 PM 62.6 °F 59.0 °F 88% 29.86 in 10.0 mi WNW 9.2 mph - N/A   Mostly Cloudy
3:53 PM 62.1 °F 57.9 °F 86% 29.87 in 10.0 mi WNW 3.5 mph - N/A   Mostly Cloudy
4:53 PM 60.1 °F 57.0 °F 90% 29.89 in 10.0 mi Calm Calm - N/A   Overcast
5:53 PM 59.0 °F 55.9 °F 90% 29.90 in 10.0 mi SW 4.6 mph - N/A   Scattered Clouds
6:33 PM 60.8 °F 57.2 °F 88% 29.91 in 9.0 mi NW 5.8 mph - N/A   Mostly Cloudy
6:53 PM 60.1 °F 55.9 °F 86% 29.90 in 10.0 mi WNW 4.6 mph - N/A   Overcast
7:20 PM 59.0 °F 55.4 °F 88% 29.92 in 10.0 mi WNW 6.9 mph - N/A   Overcast
7:53 PM 57.9 °F 55.0 °F 90% 29.90 in 10.0 mi Calm Calm - 0.00 in Rain Light Rain
8:53 PM 57.0 °F 54.0 °F 89% 29.92 in 9.0 mi West 8.1 mph - 0.04 in Rain Light Rain
9:48 PM 57.2 °F 53.6 °F 88% 29.92 in 5.0 mi West 4.6 mph - 0.06 in Rain Light Rain
9:53 PM 57.0 °F 54.0 °F 89% 29.92 in 7.0 mi West 4.6 mph - 0.06 in Rain Light Rain
10:21 PM 55.4 °F 53.6 °F 94% 29.92 in 10.0 mi WNW 21.9 mph 27.6 mph 0.01 in   Overcast
10:30 PM 53.6 °F 51.8 °F 94% 29.94 in 10.0 mi WNW 18.4 mph - 0.01 in   Overcast
10:38 PM 53.6 °F 50.0 °F 88% 29.94 in 10.0 mi NW 16.1 mph - 0.01 in   Overcast
10:53 PM 53.1 °F 50.0 °F 89% 29.95 in 6.0 mi NW 12.7 mph - 0.01 in   Overcast
11:13 PM 53.6 °F 50.0 °F 88% 29.95 in 7.0 mi WNW 12.7 mph 19.6 mph N/A   Overcast
11:32 PM 51.8 °F 48.2 °F 88% 29.95 in 10.0 mi WNW 9.2 mph - N/A   Overcast
11:49 PM 51.8 °F 48.2 °F 88% 29.95 in 10.0 mi WNW 11.5 mph 20.7 mph N/A   Overcast
11:53 PM 52.0 °F 48.0 °F 86% 29.94 in 10.0 mi WNW 9.2 mph 20.7 mph N/A   Overcast